| time (UTC) | temp C | wind direction | speed KPH | gust KPH | rain 1hr cm | rain 24hr cm | rain mn cm | humidity % | barometer mb |
| 20260503000916 | 16 | 0.0 | 0.0 | 0.00 | 0.00 | 0.00 | 73 | 1015.6 | |
| 20260502235916 | 16 | 270 | 1.6 | 4.8 | 0.00 | 0.00 | 0.00 | 73 | 1016.0 |
| 20260502234916 | 16 | 270 | 3.2 | 6.4 | 0.00 | 0.00 | 0.00 | 73 | 1015.9 |
| 20260502233916 | 16 | 338 | 4.8 | 6.4 | 0.00 | 0.00 | 0.00 | 73 | 1015.9 |
| 20260502232916 | 16 | 270 | 6.4 | 9.7 | 0.00 | 0.00 | 0.00 | 74 | 1015.9 |
| 20260502231916 | 16 | 293 | 8.0 | 12.9 | 0.00 | 0.00 | 0.00 | 74 | 1015.8 |
| 20260502230916 | 17 | 293 | 4.8 | 9.7 | 0.00 | 0.00 | 0.00 | 74 | 1015.8 |
| 20260502225935 | 17 | 270 | 1.6 | 6.4 | 0.00 | 0.00 | 0.00 | 74 | 1015.7 |
| 20260502224916 | 16 | 270 | 4.8 | 6.4 | 0.00 | 0.00 | 0.00 | 76 | 1015.6 |
| 20260502223916 | 16 | 315 | 3.2 | 4.8 | 0.00 | 0.00 | 0.00 | 77 | 1015.3 |
| 20260502222936 | 15 | 135 | 1.6 | 1.6 | 0.00 | 0.00 | 0.00 | 80 | 1015.1 |
| 20260502221916 | 15 | 0.0 | 1.6 | 0.00 | 0.00 | 0.00 | 80 | 1015.0 | |
| 20260502220916 | 15 | 0.0 | 1.6 | 0.00 | 0.00 | 0.00 | 79 | 1015.0 | |
| 20260502215917 | 16 | 0.0 | 0.0 | 0.00 | 0.00 | 0.00 | 78 | 1015.0 | |
| 20260502214917 | 16 | 0.0 | 0.0 | 0.00 | 0.00 | 0.00 | 76 | 1015.1 | |
| 20260502213917 | 16 | 0.0 | 0.0 | 0.00 | 0.00 | 0.00 | 76 | 1015.1 | |
| 20260502212917 | 16 | 0.0 | 0.0 | 0.00 | 0.00 | 0.00 | 75 | 1015.2 | |
| 20260502211917 | 16 | 135 | 1.6 | 3.2 | 0.00 | 0.00 | 0.00 | 75 | 1015.2 |
| 20260502210917 | 16 | 113 | 1.6 | 3.2 | 0.00 | 0.00 | 0.00 | 75 | 1015.3 |
| 20260502205917 | 17 | 135 | 1.6 | 3.2 | 0.00 | 0.00 | 0.00 | 75 | 1015.4 |
| 20260502204937 | 17 | 135 | 1.6 | 3.2 | 0.00 | 0.00 | 0.00 | 73 | 1015.5 |
| 20260502203917 | 17 | 0.0 | 0.0 | 0.00 | 0.00 | 0.00 | 70 | 1015.5 | |
| 20260502202917 | 18 | 0.0 | 0.0 | 0.00 | 0.00 | 0.00 | 69 | 1015.5 | |
| 20260502201917 | 18 | 0.0 | 0.0 | 0.00 | 0.00 | 0.00 | 68 | 1015.5 | |
| 20260502200917 | 18 | 0.0 | 0.0 | 0.00 | 0.00 | 0.00 | 66 | 1015.6 | |
| 20260502195937 | 19 | 0.0 | 0.0 | 0.00 | 0.00 | 0.00 | 65 | 1015.5 | |
| 20260502194917 | 19 | 0.0 | 0.0 | 0.00 | 0.00 | 0.00 | 64 | 1015.6 | |
| 20260502193937 | 20 | 0.0 | 0.0 | 0.00 | 0.00 | 0.00 | 62 | 1015.5 | |
| 20260502192917 | 20 | 0.0 | 0.0 | 0.00 | 0.00 | 0.00 | 61 | 1015.4 | |
| 20260502191917 | 21 | 0.0 | 0.0 | 0.00 | 0.00 | 0.00 | 59 | 1015.3 | |
| 20260502190937 | 21 | 0.0 | 0.0 | 0.00 | 0.00 | 0.00 | 57 | 1015.4 | |
| 20260502185937 | 22 | 0.0 | 0.0 | 0.00 | 0.00 | 0.00 | 53 | 1015.4 | |
| 20260502184917 | 22 | 0.0 | 0.0 | 0.00 | 0.00 | 0.00 | 51 | 1015.4 | |
| 20260502183917 | 23 | 0.0 | 0.0 | 0.00 | 0.00 | 0.00 | 50 | 1015.4 | |
| 20260502182937 | 23 | 0.0 | 0.0 | 0.00 | 0.00 | 0.00 | 48 | 1015.4 | |
| 20260502181917 | 23 | 0.0 | 1.6 | 0.00 | 0.00 | 0.00 | 47 | 1015.5 | |
| 20260502180937 | 24 | 0.0 | 0.0 | 0.00 | 0.00 | 0.00 | 46 | 1015.4 | |
| 20260502163917 | 26 | 203 | 1.6 | 3.2 | 0.00 | 0.00 | 0.00 | 40 | 1015.7 |
| 20260502162917 | 26 | 225 | 6.4 | 11.3 | 0.00 | 0.00 | 0.00 | 38 | 1015.8 |
| 20260502161917 | 26 | 225 | 3.2 | 4.8 | 0.00 | 0.00 | 0.00 | 39 | 1015.9 |
| 20260502160957 | 26 | 225 | 3.2 | 4.8 | 0.00 | 0.00 | 0.00 | 39 | 1016.0 |
| 20260502151937 | 26 | 225 | 11.3 | 17.7 | 0.00 | 0.00 | 0.00 | 37 | 1016.4 |
| 20260502150917 | 26 | 270 | 6.4 | 11.3 | 0.00 | 0.00 | 0.00 | 36 | 1016.4 |
| 20260502122917 | 26 | 225 | 16.1 | 25.7 | 0.00 | 0.00 | 0.00 | 30 | 1018.4 |
| 20260502121917 | 26 | 270 | 8.0 | 9.7 | 0.00 | 0.00 | 0.00 | 31 | 1018.5 |
| 20260502120917 | 26 | 158 | 4.8 | 8.0 | 0.00 | 0.00 | 0.00 | 33 | 1018.6 |
| 20260502115917 | 25 | 225 | 12.9 | 22.5 | 0.00 | 0.00 | 0.00 | 31 | 1018.8 |
| 20260502114916 | 25 | 225 | 8.0 | 14.5 | 0.00 | 0.00 | 0.00 | 32 | 1018.8 |
| 20260502113917 | 25 | 203 | 12.9 | 19.3 | 0.00 | 0.00 | 0.00 | 31 | 1018.9 |
| 20260502112917 | 25 | 248 | 6.4 | 12.9 | 0.00 | 0.00 | 0.00 | 33 | 1019.1 |
| 20260502111917 | 25 | 225 | 9.7 | 17.7 | 0.00 | 0.00 | 0.00 | 33 | 1019.2 |
| 20260502110917 | 25 | 225 | 8.0 | 14.5 | 0.00 | 0.00 | 0.00 | 33 | 1019.4 |
| 20260502105937 | 25 | 135 | 6.4 | 9.7 | 0.00 | 0.00 | 0.00 | 32 | 1019.5 |
| 20260502104937 | 25 | 180 | 4.8 | 11.3 | 0.00 | 0.00 | 0.00 | 33 | 1019.6 |
| 20260502103917 | 25 | 180 | 9.7 | 14.5 | 0.00 | 0.00 | 0.00 | 34 | 1019.6 |
| 20260502102937 | 25 | 180 | 8.0 | 12.9 | 0.00 | 0.00 | 0.00 | 34 | 1019.8 |
| 20260502101957 | 25 | 203 | 8.0 | 19.3 | 0.00 | 0.00 | 0.00 | 34 | 1019.8 |
| 20260502100917 | 24 | 158 | 12.9 | 22.5 | 0.00 | 0.00 | 0.00 | 35 | 1019.9 |
| 20260502090917 | 22 | 225 | 8.0 | 14.5 | 0.00 | 0.00 | 0.00 | 41 | 1020.8 |
| 20260502070917 | 18 | 225 | 6.4 | 12.9 | 0.00 | 0.00 | 0.00 | 53 | 1021.5 |
| 20260502065936 | 18 | 135 | 3.2 | 6.4 | 0.00 | 0.00 | 0.00 | 57 | 1021.7 |
| 20260502064937 | 17 | 113 | 1.6 | 3.2 | 0.00 | 0.00 | 0.00 | 59 | 1021.7 |
| 20260502063917 | 17 | 203 | 4.8 | 8.0 | 0.00 | 0.00 | 0.00 | 60 | 1021.8 |
| 20260502062916 | 16 | 158 | 4.8 | 9.7 | 0.00 | 0.00 | 0.00 | 62 | 1021.9 |
| 20260502061917 | 16 | 90 | 1.6 | 3.2 | 0.00 | 0.00 | 0.00 | 63 | 1021.9 |
| 20260502060937 | 15 | 158 | 4.8 | 6.4 | 0.00 | 0.00 | 0.00 | 65 | 1021.9 |
| 20260502055917 | 15 | 225 | 3.2 | 6.4 | 0.00 | 0.00 | 0.00 | 66 | 1022.0 |
| 20260502054917 | 14 | 158 | 4.8 | 8.0 | 0.00 | 0.00 | 0.00 | 68 | 1022.1 |
| 20260502053917 | 13 | 135 | 3.2 | 6.4 | 0.00 | 0.00 | 0.00 | 70 | 1022.1 |
| 20260502052917 | 13 | 135 | 1.6 | 3.2 | 0.00 | 0.00 | 0.00 | 71 | 1022.1 |
| 20260502051917 | 12 | 135 | 1.6 | 3.2 | 0.00 | 0.00 | 0.00 | 74 | 1022.1 |
| 20260502050937 | 11 | 113 | 1.6 | 3.2 | 0.00 | 0.00 | 0.00 | 76 | 1022.1 |
| 20260502045917 | 11 | 135 | 1.6 | 3.2 | 0.00 | 0.00 | 0.00 | 77 | 1022.1 |
| 20260502044916 | 10 | 135 | 1.6 | 3.2 | 0.00 | 0.00 | 0.00 | 80 | 1022.2 |
| 20260502043917 | 9 | 135 | 1.6 | 3.2 | 0.00 | 0.00 | 0.00 | 82 | 1022.2 |
| 20260502042936 | 8 | 158 | 1.6 | 1.6 | 0.00 | 0.00 | 0.00 | 83 | 1022.2 |
| 20260502041917 | 8 | 0.0 | 0.0 | 0.00 | 0.00 | 0.00 | 83 | 1022.3 | |
| 20260502040917 | 8 | 135 | 1.6 | 1.6 | 0.00 | 0.00 | 0.00 | 84 | 1022.3 |
| 20260502035917 | 8 | 135 | 1.6 | 3.2 | 0.00 | 0.00 | 0.00 | 84 | 1022.3 |
| 20260502034957 | 8 | 135 | 1.6 | 1.6 | 0.00 | 0.00 | 0.00 | 84 | 1022.4 |
| 20260502033937 | 8 | 135 | 1.6 | 1.6 | 0.00 | 0.00 | 0.00 | 83 | 1022.5 |
| 20260502032917 | 8 | 135 | 3.2 | 3.2 | 0.00 | 0.00 | 0.00 | 82 | 1022.5 |
| 20260502031917 | 8 | 113 | 3.2 | 4.8 | 0.00 | 0.00 | 0.00 | 82 | 1022.6 |
| 20260502030917 | 8 | 135 | 1.6 | 3.2 | 0.00 | 0.00 | 0.00 | 82 | 1022.7 |
| 20260502025917 | 8 | 135 | 3.2 | 4.8 | 0.00 | 0.00 | 0.00 | 82 | 1022.8 |
| 20260502024917 | 8 | 113 | 3.2 | 3.2 | 0.00 | 0.00 | 0.00 | 82 | 1022.8 |
| 20260502023917 | 8 | 113 | 1.6 | 3.2 | 0.00 | 0.00 | 0.00 | 83 | 1022.9 |
| 20260502022916 | 8 | 0.0 | 1.6 | 0.00 | 0.00 | 0.00 | 83 | 1023.0 | |
| 20260502021916 | 8 | 0.0 | 1.6 | 0.00 | 0.00 | 0.00 | 83 | 1023.1 | |
| 20260502020917 | 9 | 135 | 3.2 | 4.8 | 0.00 | 0.00 | 0.00 | 82 | 1023.2 |
| 20260502015917 | 9 | 135 | 3.2 | 4.8 | 0.00 | 0.00 | 0.00 | 80 | 1023.3 |
| 20260502014917 | 10 | 135 | 3.2 | 4.8 | 0.00 | 0.00 | 0.00 | 79 | 1023.3 |
| 20260502013917 | 10 | 135 | 3.2 | 3.2 | 0.00 | 0.00 | 0.00 | 77 | 1023.5 |
| 20260502012916 | 10 | 135 | 3.2 | 3.2 | 0.00 | 0.00 | 0.00 | 77 | 1023.6 |
| 20260502011916 | 10 | 0.0 | 0.0 | 0.00 | 0.00 | 0.00 | 77 | 1023.7 | |
| 20260502010917 | 10 | 0.0 | 1.6 | 0.00 | 0.00 | 0.00 | 76 | 1023.8 | |
| 20260502005916 | 10 | 0.0 | 0.0 | 0.00 | 0.00 | 0.00 | 76 | 1023.9 | |
| 20260502004957 | 11 | 135 | 1.6 | 3.2 | 0.00 | 0.00 | 0.00 | 75 | 1024.0 |
| 20260502003916 | 11 | 135 | 1.6 | 1.6 | 0.00 | 0.00 | 0.00 | 76 | 1024.0 |
| 20260502002916 | 11 | 0.0 | 0.0 | 0.00 | 0.00 | 0.00 | 76 | 1024.1 | |
| 20260502001916 | 11 | 0.0 | 0.0 | 0.00 | 0.00 | 0.00 | 76 | 1024.0 |